Theta_e
324 326 327 327 328 327 326 327 327 327 326 325 326 325 325 324 323 324 323 323 322 321 321 321 323 323 321 321 322 324 324 323 324 328 328 326 327 324 323 322 322 324 322 323
326 327 327 327 327 326 326 327 328 327 326 325 325 325 325 325 325 325 325 324 323 322 321 322 323 324 322 321 320 324 325 323 326 328 325 325 325 322 326 325 324 324 324 322
326 326 327 327 327 327 327 328 328 328 327 325 325 326 326 325 325 324 324 324 324 323 322 322 323 324 322 321 321 323 324 325 327 326 327 327 325 326 326 325 325 325 324 322
326 326 327 327 328 327 328 327 326 327 326 326 325 327 325 325 324 324 325 325 324 323 322 322 323 324 321 321 322 323 325 324 327 325 327 327 328 328 325 326 326 326 326 325
326 327 327 327 327 326 327 326 326 326 326 326 326 327 325 324 324 325 325 326 325 323 322 322 323 323 320 322 322 324 326 321 326 324 323 328 329 326 326 326 324 326 327 326
326 326 327 327 326 325 325 326 326 326 326 328 326 326 324 323 324 325 326 327 325 323 322 322 323 321 319 322 321 323 326 320 326 328 323 324 328 327 325 325 323 324 327 326
326 326 326 326 326 326 326 327 328 329 328 327 326 324 324 324 324 326 327 328 326 323 322 322 322 321 320 322 321 323 324 324 320 327 325 323 326 326 326 326 324 323 324 327
326 326 327 326 325 326 326 327 327 328 328 327 325 325 324 325 327 328 328 328 326 323 322 322 322 321 319 321 322 322 322 323 323 325 323 323 323 326 327 326 325 323 325 324
326 326 326 326 325 325 326 327 326 327 327 327 326 326 325 325 327 329 329 326 325 323 322 322 323 321 319 320 323 324 323 322 322 323 324 323 323 324 327 324 324 324 325 326
326 328 325 326 325 325 326 325 326 327 329 329 326 326 325 325 325 331 331 327 325 323 322 323 323 321 320 320 323 325 324 321 323 322 323 321 322 323 325 326 324 325 325 323
325 327 327 325 326 325 325 327 326 327 327 328 329 327 326 325 327 329 333 328 325 323 322 323 323 321 320 321 322 325 325 322 321 322 322 321 320 323 322 322 322 322 325 327
325 325 327 326 325 325 326 325 327 328 328 327 327 327 326 327 328 331 334 329 325 324 323 323 323 321 320 322 322 324 325 322 318 318 321 322 320 322 322 324 322 325 326 327
325 325 326 325 327 326 325 325 326 327 328 328 329 328 327 328 331 331 333 329 325 324 323 323 323 321 320 321 321 322 324 322 317 316 318 320 321 321 318 319 323 324 321 325
326 325 326 327 327 326 327 324 325 327 329 328 327 327 328 328 329 331 332 330 326 324 323 323 323 321 320 320 321 322 323 322 317 317 317 317 321 321 320 320 323 325 324 325
327 328 324 324 324 325 325 325 325 326 327 328 326 326 326 327 328 329 331 330 327 324 323 323 323 322 320 320 321 321 323 322 319 318 318 317 316 319 321 322 322 323 324 323
326 325 324 324 323 323 324 325 326 326 326 326 326 326 326 326 325 328 331 330 328 326 324 324 324 323 320 320 321 321 322 322 320 319 319 318 315 318 319 321 321 319 322 323
326 324 325 325 322 322 325 324 325 326 326 326 326 326 326 326 328 328 331 329 329 328 325 324 324 324 321 320 321 322 322 322 321 320 320 319 315 316 317 320 320 323 320 318
326 326 325 325 324 326 324 324 323 324 325 325 325 325 325 325 326 327 328 330 329 329 327 325 325 324 323 321 321 321 322 322 321 321 321 320 316 315 317 320 321 319 319 318
324 328 325 326 328 324 325 325 324 323 324 324 326 325 324 324 326 327 328 329 329 330 329 327 325 325 325 322 321 321 322 321 320 320 321 320 317 316 317 318 321 319 319 319
319 324 326 327 331 327 325 325 324 325 326 325 326 327 327 325 329 328 327 329 329 330 330 329 327 326 326 323 321 322 322 321 321 320 320 320 318 316 317 317 318 314 314 316
321 322 325 328 331 326 326 325 325 327 326 326 326 326 327 328 329 325 328 330 330 331 330 330 328 327 326 324 323 321 321 321 321 320 319 320 319 317 318 319 313 310 311 318
321 322 323 325 326 326 325 327 328 326 332 328 328 328 329 328 329 329 330 330 330 331 329 329 328 327 327 325 324 323 321 321 321 320 319 320 321 317 317 313 310 310 312 315
322 320 321 321 324 328 325 326 327 327 327 328 328 331 329 330 330 330 330 330 330 330 330 328 328 328 327 326 325 324 323 322 321 321 320 321 321 318 317 312 310 314 308 315
318 319 321 322 322 323 323 325 327 329 329 329 330 331 331 330 331 331 330 330 329 330 330 328 328 328 327 327 325 323 324 323 320 321 321 322 322 320 317 317 316 317 317 317
316 317 318 321 322 321 321 320 322 327 329 329 329 329 330 330 330 329 329 329 329 329 330 329 328 328 328 327 327 326 325 324 321 321 322 323 322 318 318 315 317 317 317 317
316 315 316 318 318 321 321 321 321 323 328 328 328 328 328 328 328 328 329 329 328 328 329 329 328 328 328 327 327 326 325 324 323 321 322 322 322 322 320 317 316 315 317 312
Wind_Speed
25 16 23 25 21 17 11 11 13 10 7 10 14 13 14 19 17 15 16 18 21 20 16 15 12 8 3 2 3 5 6 10 11 9 10 9 9 7 6 8 8 9 10 9
17 23 24 22 19 17 14 16 16 8 10 7 13 16 16 16 13 12 14 18 20 19 19 17 14 9 5 2 1 3 5 9 10 9 11 9 8 8 13 8 10 4 7 6
24 23 23 21 18 19 18 18 14 11 10 12 12 17 8 8 9 11 12 14 17 21 22 19 16 11 6 3 2 1 4 8 9 11 10 11 8 10 13 19 18 11 4 6
23 23 24 19 24 20 20 15 14 13 12 11 2 13 11 9 9 9 10 12 16 20 21 20 17 13 9 6 4 2 3 6 7 11 10 11 7 6 11 14 16 19 13 11
25 24 24 25 24 21 18 13 13 15 12 11 15 7 8 5 8 6 7 8 12 18 22 21 18 14 10 8 6 3 2 5 7 10 11 9 8 8 7 11 15 15 13 11
25 20 20 22 17 16 16 8 10 8 11 11 15 9 9 3 4 9 3 2 8 17 22 20 17 14 12 10 7 5 2 4 5 6 10 11 9 11 12 4 9 12 13 12
25 23 22 18 20 13 18 14 10 10 10 11 2 6 10 9 8 8 9 9 8 18 23 23 20 16 14 12 9 6 4 3 5 6 7 10 11 12 12 9 12 12 12 13
23 24 26 18 23 16 21 18 11 11 11 11 7 6 4 0 3 6 6 5 11 21 24 23 21 16 15 14 11 8 5 4 5 5 6 8 12 10 14 12 15 13 11 16
23 24 28 24 21 22 16 18 18 16 14 8 11 5 11 5 4 4 1 4 15 22 23 23 20 17 16 14 13 10 6 5 5 4 5 7 10 15 17 17 14 9 9 11
11 21 16 23 22 23 20 16 10 10 14 14 8 6 7 6 3 4 5 9 16 21 23 23 21 18 17 15 13 11 8 5 6 6 5 6 8 10 15 12 12 11 11 15
16 15 21 17 22 22 13 16 14 13 13 12 10 6 5 2 1 3 5 13 19 23 24 24 22 19 18 16 13 11 9 7 7 7 6 7 7 8 10 11 12 12 13 15
31 13 14 24 20 23 23 22 21 13 16 10 10 9 9 6 4 4 3 13 20 23 24 23 22 20 20 18 15 12 11 9 8 8 7 7 7 7 9 10 12 12 17 19
25 15 15 15 10 14 23 21 21 20 16 17 11 11 7 6 7 6 6 15 19 25 25 23 23 22 21 19 17 14 12 11 10 10 9 8 8 9 9 12 14 13 15 15
26 18 27 22 21 18 21 21 23 21 16 16 16 16 9 9 10 9 9 13 18 26 28 26 24 23 21 19 17 16 14 13 12 12 11 10 10 10 10 11 12 12 13 15
20 25 24 26 20 22 20 22 24 24 23 20 16 16 12 10 11 12 11 13 18 23 28 27 26 25 24 22 20 17 15 16 14 13 12 11 12 12 11 11 11 12 12 14
21 17 22 21 26 22 21 25 24 24 25 22 20 19 12 14 13 13 12 17 20 25 31 30 26 25 25 24 23 21 18 17 16 15 13 12 13 13 13 12 12 13 13 13
19 16 14 22 22 21 23 27 25 23 24 20 21 19 17 13 11 16 17 20 21 23 28 32 32 29 27 26 25 24 21 19 18 16 14 13 13 15 15 14 13 12 14 14
17 20 13 12 17 21 19 21 25 25 22 21 19 18 18 18 18 18 18 20 20 20 24 29 29 28 27 27 26 23 22 21 19 17 16 14 14 15 17 16 15 16 15 14
9 17 12 11 15 9 13 12 23 23 26 23 20 20 21 18 14 15 17 19 22 21 24 28 31 31 27 28 27 26 24 23 22 20 18 17 15 16 18 18 17 17 17 16
6 8 13 12 19 26 13 14 12 15 17 18 23 21 20 18 10 13 22 23 22 19 20 23 28 30 30 29 28 29 28 26 24 22 21 19 17 17 18 19 20 20 18 16
11 11 16 12 14 10 4 17 18 18 7 17 21 26 24 14 20 16 8 19 23 21 19 22 27 32 35 35 32 31 30 29 26 23 22 21 19 18 18 19 20 22 20 15
15 11 11 14 16 13 10 9 18 9 6 8 15 19 22 27 27 16 10 15 23 21 18 24 26 28 30 34 34 32 32 29 27 25 23 23 21 19 19 20 21 21 21 18
15 15 13 14 12 7 15 12 18 11 16 13 14 13 20 22 20 16 15 16 20 17 17 21 25 25 26 33 36 35 33 30 29 27 26 25 23 22 21 22 23 22 24 19
14 7 10 9 15 7 12 11 11 16 15 10 12 11 13 16 14 17 15 17 19 18 16 17 23 26 27 31 39 42 31 30 31 30 27 26 26 24 22 22 22 21 22 21
15 15 15 13 16 13 13 23 20 16 15 12 10 11 12 13 13 15 16 16 16 16 14 17 22 26 27 28 31 33 33 32 32 32 30 28 27 28 26 26 24 24 24 23
15 21 16 14 12 20 20 16 25 21 19 17 16 12 13 12 13 12 12 13 14 13 14 16 19 23 24 24 27 30 35 36 37 37 33 32 30 29 27 26 25 28 25 27
Wind_Direction
189 202 206 207 217 235 269 251 249 252 271 268 279 289 287 284 271 258 252 229 224 217 210 203 199 200 208 302 318 318 332 349 357 0 356 350 360 360 330 330 306 299 247 228
187 215 209 217 211 223 230 240 245 248 268 273 286 288 293 283 270 265 245 228 221 210 201 199 196 196 196 230 311 326 341 358 9 357 0 11 29 36 30 11 14 35 182 192
204 212 214 213 209 213 225 239 242 258 300 262 261 276 264 273 244 250 246 235 219 208 199 195 193 193 187 194 192 17 7 34 29 29 16 29 43 53 54 63 50 60 114 160
216 217 201 202 213 213 227 219 258 261 265 282 3 293 282 274 275 256 245 225 216 204 198 193 188 187 185 178 171 120 41 55 30 38 18 31 53 49 59 61 60 57 69 114
210 208 192 209 214 208 238 233 233 257 267 284 261 254 288 242 279 292 279 207 209 200 194 188 184 182 178 171 171 157 78 58 47 38 35 34 32 31 69 64 61 44 56 107
225 211 203 214 216 217 225 206 227 245 256 248 255 248 277 273 312 318 317 116 197 188 186 184 180 176 175 169 167 162 124 79 63 46 38 46 35 39 38 69 49 46 64 84
214 202 208 211 207 205 219 214 225 221 219 250 153 246 258 307 312 322 306 312 189 179 179 178 178 178 175 173 172 167 143 101 82 59 46 47 42 43 27 59 101 71 77 74
202 207 191 200 208 192 203 208 230 225 244 251 154 252 222 317 310 290 312 314 169 172 176 177 179 179 175 174 173 167 145 133 108 80 54 53 52 33 30 74 108 98 67 63
197 209 200 204 209 214 190 219 226 255 267 273 273 194 256 254 250 215 236 141 163 169 174 176 179 179 176 175 178 172 155 147 123 101 75 70 59 58 79 84 99 82 58 55
196 208 189 198 207 211 218 202 201 224 241 238 237 234 268 227 346 99 170 169 170 169 173 176 180 181 177 175 177 177 167 153 143 122 101 89 79 71 81 85 72 82 92 73
185 208 187 189 204 200 190 221 215 250 226 235 243 254 107 273 203 338 167 174 176 177 179 177 180 182 179 176 178 177 172 162 152 139 121 105 102 85 90 84 80 84 98 111
201 198 182 209 198 215 201 214 207 222 214 244 274 258 146 249 252 280 196 176 182 179 181 182 178 181 181 181 183 182 175 168 157 152 144 124 114 110 102 91 93 86 94 104
191 210 208 193 192 216 225 212 220 219 245 251 234 241 161 193 222 224 195 178 180 181 179 183 181 183 184 184 187 188 181 174 162 153 153 145 132 133 122 116 107 93 99 103
195 200 209 210 199 191 207 223 217 218 223 234 239 252 194 208 223 198 195 186 184 183 181 183 185 185 186 185 187 190 184 179 167 157 156 157 151 144 137 130 123 113 101 107
192 210 212 226 217 202 210 214 218 218 224 234 235 241 234 236 217 229 200 190 184 185 187 189 187 186 185 183 185 188 187 181 172 163 158 161 163 153 152 142 141 129 125 119
192 216 221 218 222 221 214 218 215 218 225 228 242 251 242 235 254 209 203 192 191 192 194 193 190 185 186 186 184 184 186 184 179 171 166 164 166 165 163 159 153 149 141 133
188 206 206 221 217 225 232 219 216 219 226 228 233 238 243 235 232 227 208 202 200 196 195 194 193 187 186 188 185 186 184 184 185 180 175 171 170 172 172 169 165 159 156 151
196 197 199 207 199 209 242 225 222 225 228 225 241 245 236 236 231 230 222 211 203 200 199 199 195 192 187 185 186 186 185 185 186 186 184 180 174 176 176 174 173 175 169 164
218 190 195 199 201 217 194 205 210 216 231 230 228 226 234 233 232 248 228 215 212 204 204 199 195 192 186 184 185 184 187 188 187 189 189 186 180 178 180 181 182 182 181 179
170 235 202 204 195 221 209 164 197 211 231 219 218 222 227 228 217 235 209 214 212 207 201 194 191 188 186 185 185 185 189 191 192 190 190 189 185 182 182 184 188 192 191 188
180 188 198 182 214 224 187 190 182 198 214 200 213 220 221 219 222 238 231 203 205 197 193 194 187 187 191 187 185 189 191 196 194 190 188 188 188 184 182 183 189 191 189 192
191 187 197 216 210 221 172 205 196 204 155 195 210 221 213 218 224 219 207 195 189 194 199 195 192 187 188 188 188 190 197 195 192 191 189 189 189 183 184 184 185 188 188 189
215 208 208 203 205 78 183 205 205 211 221 224 240 224 209 215 216 206 200 190 196 195 196 197 196 190 189 189 195 196 198 191 191 191 191 189 190 186 189 185 184 183 186 184
222 250 239 249 225 222 241 239 234 230 234 248 229 210 208 215 211 203 204 199 199 194 194 197 195 195 193 194 198 208 192 190 190 193 194 191 189 190 191 189 190 186 188 186
232 221 233 247 247 255 237 242 249 243 246 236 232 222 207 199 202 198 192 185 193 197 205 206 201 198 198 199 202 198 195 191 192 193 194 194 193 194 196 194 195 194 199 194
239 230 230 232 241 239 243 231 242 246 237 233 234 218 206 198 192 187 184 182 189 197 202 205 203 199 198 202 203 200 196 195 194 196 196 198 196 198 198 198 199 201 200 205